Home > Weather > Hohhot > Past weeks

Flag for China Past Weather in Hohhot, Inner Mongolia, China — Yesterday and Last 2 Weeks

Now
72 °F

Sprinkles. Scattered clouds.


Feels Like: 72 °F
Forecast: 64 / 82 °F
Wind: 15 mph from North

Location: Hohhot Airport

Current Time: Jul 24, 2016 at 4:49:53 PM

Latest Report: Jul 24, 2016 at 4:00 PM


Visibility: N/A

Pressure: 29.80 "Hg (26.38 "Hg at 1053m altitude)

Humidity: 78%

Dew Point: 64 °F

Location of HohhotLocation

Past Weather in Hohhot — Graph

°F

Hohhot Temperature Yesterday

Maximum temperature yesterday: 86 °F (at 2:00 PM)
Minimum temperature yesterday: 64 °F (at 5:00 AM)
Average temperature yesterday: 76 °F

High & Low Weather Summary for the Past Weeks

 TemperatureHumidityPressure
High91 °F (Jul 9, 3:00 PM)100% (Jul 11, 10:00 AM)29.89 "Hg (Jul 11, 10:00 AM)
Low52 °F (Jul 17, 5:00 AM)29% (Jul 12, 6:00 PM)29.59 "Hg (Jul 15, 5:00 PM)
Average71 °F72%29.76 "Hg
* Reported Jul 9 3:00 PM — Jul 24 3:00 PM, Hohhot, Weather by CustomWeather, © 2016

Note: Actual official high and low records may vary slightly from our data, if they occured in-between our weather recording intervals... More about our weather records

Advertising

Hohhot Weather History for the Previous 24 Hours

Scroll right to see more
 ConditionsComfort  
Time TempWeatherWind HumidityBarometerVisibility
3:00 PM
Sun, Jul 24
77 °FScattered clouds.10 mph61%29.83 "HgN/A
2:00 PM77 °FScattered clouds.13 mph61%29.83 "HgN/A
1:00 PM79 °FScattered clouds.8 mph51%29.83 "HgN/A
12:00 PM77 °FScattered clouds.6 mph54%29.86 "HgN/A
11:00 AM77 °FPassing clouds.8 mph54%29.83 "HgN/A
10:00 AM77 °FPassing clouds.6 mph51%29.86 "HgN/A
9:00 AM77 °FPassing clouds.6 mph51%29.86 "HgN/A
8:00 AM72 °FSunny.1 mph61%29.86 "Hg10 mi
7:00 AM70 °FPassing clouds.3 mph69%29.86 "HgN/A
6:00 AM70 °FSunny.6 mph57%29.86 "Hg10 mi
5:00 AM66 °FClear.6 mph68%29.83 "Hg10 mi
4:00 AM68 °FClear.3 mph64%29.83 "Hg10 mi
3:00 AM70 °FClear.3 mph60%29.83 "Hg10 mi
2:00 AM73 °FClear.8 mph47%29.83 "Hg10 mi
1:00 AM73 °FClear.8 mph50%29.83 "Hg10 mi
12:00 AM77 °FPassing clouds.6 mph44%29.83 "HgN/A
11:00 PM
Sat, Jul 23
77 °FPassing clouds.6 mph47%29.80 "HgN/A
10:00 PM79 °FPassing clouds.3 mph45%29.80 "HgN/A
9:00 PM81 °FPassing clouds.6 mph48%29.77 "HgN/A
8:00 PM81 °FPassing clouds.6 mph58%29.74 "HgN/A
7:00 PM81 °FPassing clouds.6 mph62%29.71 "HgN/A
6:00 PM82 °FScattered clouds.6 mph55%29.71 "HgN/A
5:00 PM82 °FScattered clouds.6 mph55%29.71 "HgN/A
4:00 PM86 °FPassing clouds.3 mph49%29.71 "HgN/A
Weather by CustomWeather, © 2016

See weather overviewHow to use our weather pages